Weather History for Spencer, IA

Change the Weather History Date:

Thursday, December 5, 2013

  Actual Average Record
Temperature  
Mean Temperature 4 °F -  
Max Temperature 9 °F 32 °F 61 °F (2001)
Min Temperature -2 °F 13 °F -11 °F (2005)
Degree Days  
Heating Degree Days 60    
Moisture  
Dew Point -2 °F    
Average Humidity 73    
Maximum Humidity 80    
Minimum Humidity 66    
Precipitation  
Precipitation 0.00 in - - ()
Sea Level Pressure  
Sea Level Pressure 30.22 in    
Wind  
Wind Speed 21 mph (WNW)    
Max Wind Speed 28 mph    
Max Gust Speed 36 mph    
Visibility 10 miles    
Events      
Averages and records for this station are not official NWS values.
T = Trace of Precipitation, MM = Missing Value Source: NWS Daily Summary

Daily Weather History Graph

Daily Weather History Graph

Search for Another Location

Airport:

Trip Planner

Search our weather history database for the weather conditions in past years. The results will help you decide how hot, cold, wet, or windy it might be!

Date:

Astronomy

Dec. 05, 2013 Rise Set
Actual Time 7:37 AM CST 4:45 PM CST
Civil Twilight 7:05 AM CST 5:17 PM CST
Nautical Twilight 6:29 AM CST 5:53 PM CST
Astronomical Twilight 5:55 AM CST 6:27 PM CST
Moon 9:56 AM CST (12/5) 8:10 PM CST (12/5)
Length of Visible Light 10h 12m
Length of Day
9h 08m
Waxing Crescent, 11% of the Moon is Illuminated
Dec 5
Waxing Crescent
Dec 9
First Quarter
Dec 17
Full
Dec 25
Last Quarter
Jan 1
New

Hourly Weather History & Observations

Time (CST) Temp. Windchill Dew Point Humidity Pressure Visibility Wind Dir Wind Speed Gust Speed Precip Events Conditions
12:53 AM 9.0 °F -11.8 °F 3.0 °F 77% 29.95 in 10.0 mi WNW 24.2 mph - N/A   Overcast
1:53 AM 8.1 °F -11.7 °F 1.9 °F 76% 30.03 in 10.0 mi WNW 20.7 mph 32.2 mph N/A   Overcast
2:51 AM 8.6 °F -12.3 °F 1.4 °F 73% 29.99 in 10.0 mi WNW 24.2 mph - N/A   Overcast
2:53 AM 8.1 °F -12.6 °F 1.9 °F 76% 30.07 in 10.0 mi WNW 23.0 mph - N/A   Overcast
3:09 AM 8.1 °F -13.0 °F 1.9 °F 76% 30.00 in 10.0 mi WNW 24.2 mph 29.9 mph N/A   Overcast
3:23 AM 8.1 °F -13.0 °F 1.0 °F 73% 30.02 in 10.0 mi WNW 24.2 mph 33.4 mph N/A   Overcast
3:53 AM 7.0 °F -12.1 °F 1.0 °F 77% 30.11 in 10.0 mi WNW 18.4 mph - N/A   Overcast
4:44 AM 6.1 °F -14.3 °F -0.0 °F 76% 30.04 in 10.0 mi West 20.7 mph - N/A   Mostly Cloudy
4:53 AM 6.1 °F -14.8 °F -0.0 °F 76% 30.12 in 10.0 mi West 21.9 mph 29.9 mph N/A   Partly Cloudy
5:17 AM 5.0 °F -15.2 °F -0.0 °F 80% 30.06 in 10.0 mi WNW 19.6 mph 28.8 mph N/A   Mostly Cloudy
5:53 AM 3.9 °F -16.6 °F -0.9 °F 80% 30.16 in 10.0 mi West 19.6 mph 26.5 mph N/A   Overcast
6:37 AM 3.9 °F -16.1 °F -2.0 °F 76% 30.09 in 10.0 mi WNW 18.4 mph 26.5 mph N/A   Scattered Clouds
6:53 AM 3.0 °F -17.8 °F -2.0 °F 80% 30.18 in 10.0 mi WNW 19.6 mph - N/A   Partly Cloudy
7:53 AM 3.0 °F -17.3 °F -2.9 °F 76% 30.20 in 10.0 mi WNW 18.4 mph - N/A   Clear
8:53 AM 3.9 °F -19.0 °F -2.0 °F 76% 30.23 in 10.0 mi WNW 25.3 mph 32.2 mph N/A   Clear
9:53 AM 5.0 °F -18.3 °F -2.0 °F 73% 30.24 in 10.0 mi WNW 27.6 mph 35.7 mph N/A   Clear
10:53 AM 7.0 °F -15.3 °F -0.0 °F 73% 30.29 in 10.0 mi WNW 26.5 mph 32.2 mph N/A   Clear
11:53 AM 8.1 °F -12.6 °F 1.0 °F 73% 30.30 in 10.0 mi WNW 23.0 mph - N/A   Scattered Clouds
12:53 PM 9.0 °F -11.8 °F -0.0 °F 67% 30.28 in 10.0 mi WNW 24.2 mph 29.9 mph N/A   Clear
1:53 PM 9.0 °F -10.0 °F 1.0 °F 70% 30.28 in 10.0 mi WNW 19.6 mph 29.9 mph N/A   Clear
2:53 PM 8.1 °F -12.2 °F -0.9 °F 67% 30.28 in 10.0 mi WNW 21.9 mph 32.2 mph N/A   Clear
3:53 PM 7.0 °F -12.1 °F -2.0 °F 67% 30.30 in 10.0 mi WNW 18.4 mph - N/A   Clear
4:53 PM 5.0 °F -15.2 °F -4.0 °F 66% 30.33 in 10.0 mi WNW 19.6 mph - N/A   Clear
5:53 PM 3.9 °F -15.0 °F -4.0 °F 70% 30.38 in 10.0 mi West 16.1 mph 23.0 mph N/A   Clear
6:53 PM 1.9 °F -13.8 °F -5.1 °F 72% 30.42 in 10.0 mi West 10.4 mph - N/A   Clear
7:53 PM 1.9 °F -16.9 °F -6.0 °F 69% 30.42 in 10.0 mi West 15.0 mph - N/A   Clear
8:53 PM 1.9 °F -16.2 °F -6.0 °F 69% 30.45 in 10.0 mi West 13.8 mph - N/A   Clear
9:53 PM -0.0 °F -19.4 °F -8.0 °F 69% 30.44 in 10.0 mi WNW 15.0 mph - N/A   Clear
10:53 PM -0.9 °F -17.4 °F -8.0 °F 72% 30.48 in 10.0 mi WNW 10.4 mph - N/A   Clear
11:53 PM -2.0 °F -20.5 °F -9.0 °F 72% 30.47 in 10.0 mi WNW 12.7 mph - N/A   Clear